Simultaneous Nadir Overpasses (SNOs) Predictions

Prediction of SNOs between AQUA and METOP-B Satellite Orbit:

Table of predicted SNOs for the next 14.0 days since TLE Epoch: 8/20/2025
Index Date (AQUA) Time (AQUA) Lat,Lon (AQUA) SZA (AQUA ) Date (METOP-B) Time (METOP-B) Lat,Lon (METOP-B) SZA (METOP-B ) Distance(km) Time Diff (sec)
1 08/23/2025 07:28:35 77.85, 67.63 66.46 08/23/2025 07:27:54 77.86, 67.75 66.47 3.01 41
2 08/23/2025 08:17:53 -77.89,-124.89 113.48 08/23/2025 08:18:35 -77.87,-124.85 113.51 2.68 42
3 08/25/2025 19:27:12 -77.84, 68.08 112.69 08/25/2025 19:26:13 -77.85, 68.10 112.68 0.90 59
4 08/25/2025 20:16:31 77.86,-124.35 67.35 08/25/2025 20:16:52 77.90,-124.32 67.39 4.12 21
5 08/28/2025 07:25:44 77.62, 69.48 67.97 08/28/2025 07:24:36 77.57, 67.21 67.93 54.60 68
6 08/28/2025 08:15:07 -77.88,-124.01 111.76 08/28/2025 08:15:10 -77.89,-123.97 111.75 1.51 3
7 08/28/2025 09:04:36 78.34, 41.43 68.72 08/28/2025 09:05:39 78.35, 45.70 68.73 96.02 63
8 08/30/2025 20:13:44 77.87,-123.54 69.12 08/30/2025 20:13:27 77.91,-123.52 69.16 4.18 17
9 08/30/2025 21:03:02 -77.90, 43.98 110.84 08/30/2025 21:04:08 -77.93, 43.93 110.81 3.16 66
10 09/02/2025 08:12:20 -77.89,-123.22 109.96 09/02/2025 08:11:46 -77.90,-123.17 109.95 1.35 34



Historial Predications of SNOs between AQUA and METOP-B
